Regional Weather Roundup
Issued by NWS

Home | Current Version | Previous Version | Text Only | Print | Product List | Glossary Off
Versions: 1 2 3 4 5 6 7 8 9 10 11 12 13 14 15 16 17 18 19 20 21 22 23 24 25 26 27 28 29 30 31 32 33 34 35 36 37 38 39 40 41 42 43 44 45 46 47 48 49 50

000
ASUS43 KLOT 022200
RWRIL

ILLINOIS REGIONAL WEATHER ROUNDUP
NATIONAL WEATHER SERVICE CHICAGO/ROMEOVILLE IL
400 PM CST MON MAR 02 2015

NOTE: "FAIR" INDICATES FEW OR NO CLOUDS BELOW 12,000 FEET WITH NO
SIGNIFICANT WEATHER AND/OR OBSTRUCTIONS TO VISIBILITY.

* THESE STATIONS ARE NOT UNDER NWS QUALITY CONTROL. THEY ALSO MAY NOT
  REPORT WEATHER SUCH AS PRECIPITATION OR FOG.

ILZ001-002-007-009-015-016-024-022300-
NORTHWEST ILLINOIS

CITY           SKY/WX    TMP DP  RH WIND       PRES   REMARKS
MOLINE         CLOUDY    27  17  66 SE7       30.40F WCI  19
STERLING*      CLOUDY    27  18  69 S3        30.42F
$$

ILZ003-004-008-010-011-017-018-022300-
NORTH CENTRAL ILLINOIS

CITY           SKY/WX    TMP DP  RH WIND       PRES   REMARKS
ROCKFORD       CLOUDY    26  13  57 S6        30.43F WCI  19
$$

ILZ005-006-012>014-019>023-022300-
NORTHEAST ILLINOIS

CITY           SKY/WX    TMP DP  RH WIND       PRES   REMARKS
CHICAGO-OHARE  CLOUDY    32  10  40 E3        30.39F
CHICAGO-MIDWAY PTSUNNY   31  18  58 E10       30.41F WCI  22
AURORA         SUNNY     27  14  58 CALM      30.42F
WAUKEGAN       MOSUNNY   25  14  63 E7        30.41F WCI  17
DUPAGE AIRPORT SUNNY     30  12  47 CALM      30.40F
WHEELING       MOSUNNY   29  15  56 E9        30.42F WCI  20
NORTHERLY ISL    N/A     26  18  71 E8          N/A  WCI  18
$$

LMZ740>746-022300-
SOUTHERN LAKE MICHIGAN

STATION/POSITION SKY/WX   TEMP    WIND        PRES    VSBY  WAVE
                          AIR SEA DIR/SP/G                  HT/PER
                          (F)     (DEG/KT/KT) (MB)    (MI)  (FT/S)
WAUKEGAN HARBOR            26     130/ 10/ 21   N/A
HARRISON CRIB              25     100/ 10/ 12   N/A
BURNHAM HARBOR             26      80/  6/  7   N/A
CALUMET HARBOR             26      70/ 10/ 11 1029.2F
MICHIGAN CITY              31     340/  3/  4   N/A
$$

ILZ025>027-034>036-040-047-049-050-058-095>099-022300-
WEST-CENTRAL ILLINOIS

CITY           SKY/WX    TMP DP  RH WIND       PRES   REMARKS
QUINCY         PTSUNNY   33  19  56 SE8       30.37F WCI  26
$$

ILZ028>032-037-038-041>044-048-051>054-059>061-022300-
CENTRAL ILLINOIS

CITY           SKY/WX    TMP DP  RH WIND       PRES   REMARKS
DECATUR        CLOUDY    28  20  71 E7        30.44F WCI  21
PEORIA         CLOUDY    30  18  60 S10       30.42F WCI  21
SPRINGFIELD    PTSUNNY   32  20  61 SE8       30.42F WCI  25
TAYLORVILLE    NOT AVBL
$$

ILZ033-039-045-046-055>057-062-063-022300-
EAST-CENTRAL ILLINOIS

CITY           SKY/WX    TMP DP  RH WIND       PRES   REMARKS
CHAMPAIGN      CLOUDY    26  18  71 SE6       30.43F WCI  19
MATTOON        MOSUNNY   29  18  63 NW6       30.43F WCI  23
$$

ILZ079-100>102-022300-
SOUTHWEST ILLINOIS

CITY           SKY/WX    TMP DP  RH WIND       PRES   REMARKS
ALTON          PTSUNNY   34  14  44 SE9       30.41F WCI  26
CAHOKIA*       CLOUDY    34  19  54 E10       30.40F WCI  26
$$

ILZ064>066-069>071-074>076-080>082-084>086-088>090-092>094-022300-
SOUTH-CENTRAL ILLINOIS

CITY           SKY/WX    TMP DP  RH WIND       PRES   REMARKS
CARBONDALE     PTSUNNY   37  21  52 NE9       30.39F WCI  30
MARION         PTSUNNY   37  21  52 NE9       30.40F WCI  31
MT. VERNON     PTSUNNY   32  18  55 NE8       30.43F WCI  25
$$

ILZ067-068-072-073-078-083-087-091-022300-
SOUTHEAST ILLINOIS

CITY           SKY/WX    TMP DP  RH WIND       PRES   REMARKS
LAWRENCEVILLE  SUNNY     33  20  58 N6        30.45F WCI  28
$$

ABBREVIATIONS USED IN REMARKS
   TC - TEMPERATURE IN CELSIUS
  WCI - WIND CHILL INDEX
   HX - HEAT INDEX
  VSB - VISIBILITY
$$




USA.gov is the U.S. government's official web portal to all federal, state and local government web resources and services.